Location: Benalto
(52.3088°N, 114.2787°W)
Time: 11:44:18
(UTC+00:00)

N. Korean satellite - Pass Details

Date: 05 December 2021
Orbit: 447 x 490 km, 97.3° (Epoch: 27 January)

Event Time Altitude Azimuth Distance (km) Brightness Sun altitude
Rises 12:09:52 0° 25° (NNE) 2,471 10.5 -29.4°
Reaches altitude 10° 12:12:17 10° 42° (NE) 1,589 9.6 -29.0°
Maximum altitude 12:14:55 21° 93° (E) 1,076 9.0 -28.6°
Drops below altitude 10° 12:17:32 10° 144° (SE) 1,574 9.6 -28.2°
Sets 12:19:54 0° 161° (SSE) 2,441 10.4 -27.8°
